カタログに戻る

STARLINK-36888

運用中通信VLEO
NORAD 68004·PAYLOAD·🇺🇸 United States

打ち上げ Feb 27, 2026 から Vandenberg Space Force Base

Loading…

次のパス (今後24時間)

TLE

最新Source: CelesTrak SupGP

元期: Sep 15, 2026, 03:05 UTC

1 68004C 26039U   26258.12895833 -.00030981  00000+0 -11218-2 0  2585
2 68004  43.0010  59.4298 0001543 270.7918  16.4124 15.27604156    18

AllMySatでSTARLINK-36888をリアルタイム追跡

Download on the App Store